Skip Page Navigation
NASA JPL Caltech
NASA Logo - Jet Propulsion Laboratory + View the NASA Portal
+ Center for Near-Earth Object Studies
JPL Home Earth Solar System Stars & Galaxies Technology
JPL Solar System Dynamics
BODIES ORBITS EPHEMERIDES TOOLS PHYSICAL DATA DISCOVERY FAQ SITE MAP

Significant website upgrade scheduled for September 27. More details available here.

JPL Small-Body Database Browser
Search: [ help ]  
5231 Verne (1988 JV)
Classification: Main-belt Asteroid          SPK-ID: 2005231
Ephemeris | Orbit Diagram | Orbital Elements | Mission Design | Physical Parameters | Discovery Circumstances ]

[ show orbit diagram ]
Orbital Elements at Epoch 2459396.5 (2021-Jul-01.0) TDB
Reference: JPL 37 (heliocentric ecliptic J2000)
 Element Value Uncertainty (1-sigma)   Units 
e .1523764699821348 1.1036e-08  
a 2.619316703760195 9.5889e-09 au
q 2.220194470675975 2.8177e-08 au
i 14.91876311161552 5.8185e-07 deg
node 91.08901618712157 1.7028e-06 deg
peri 320.2069006403535 4.9447e-06 deg
M 118.8517930069814 4.4828e-06 deg
tp 2458885.308430629489
(2020-Feb-05.80843063)
1.8128e-05 TDB
period 1548.390312989002
4.24
8.5026e-06
2.328e-08
d
yr
n .2324995170662482 1.2767e-09 deg/d
Q 3.018438936844415 1.105e-08 au
  Orbit Determination Parameters
   # obs. used (total)      2793  
   data-arc span      12137 days (33.23 yr)  
   first obs. used      1988-05-09  
   last obs. used      2021-08-01  
   planetary ephem.      DE441  
   SB-pert. ephem.      SB441-N16  
   condition code      0  
   norm. resid. RMS      .40834  
   source      ORB  
   producer      Otto Matic  
   solution date      2021-Aug-25 11:13:58  

Additional Information
 Earth MOID = 1.25184 au 
 Jupiter MOID = 2.3426 au 
 T_jup = 3.342 
[ show covariance matrix ]

Ephemeris | Orbit Diagram | Orbital Elements | Mission Design | Physical Parameters | Discovery Circumstances ]

Physical Parameter Table
Parameter Symbol Value Units Sigma Reference Notes
absolute magnitude H 12.03   n/a MPCxxxxx  
diameter diameter 11.243 km 0.270 urn:nasa:pds:neowise_diameters_albedos::2.0[mainbelt] (http://adsabs.harvard.edu/abs/2014ApJ...791..121M)  
rotation period rot_per 4.320 h n/a LCDB (Rev. 2020-October); Warner et al., 2009 Published Reference List:
[Behrend, R. (2008) Observatoire de Geneve web site, http://obswww.unige.ch/~behrend/page_cou.html]
[Hanus, J.; Durech, J.; Oszkiewicz, D.A.; Behrend, R.; et al. (2016) Astron. Astrophys. 586, A108.]
geometric albedo albedo 0.243   0.021 urn:nasa:pds:neowise_diameters_albedos::2.0[mainbelt] (http://adsabs.harvard.edu/abs/2014ApJ...791..121M)  

5231 Verne (1988 JV)          Discovered 1988-May-09 by Shoemaker, C. S. at Palomar
Reference: DISCOVERY.DBLast Updated: 2003-08-29

Alternate Designations
 1988 JV = 1960 WT 
Ephemeris | Orbit Diagram | Orbital Elements | Mission Design | Physical Parameters | Discovery Circumstances ]
ABOUT SSD CREDITS/AWARDS PRIVACY/COPYRIGHT GLOSSARY LINKS
FirstGov 2021-Sep-21 18:27 UT
(server date/time)  
NASA Home Page
Site Manager:   Ryan S. Park
Webmaster  Alan B. Chamberlin